Temperature
17 17 17 17 17 17 17 17 18 18 18 18 18 17 18 17 17 17 17 17 17 17 17 16 16 16 16 15 15 15 15 15 15 15 15 15 15 15 15 15 15 15 15
17 17 17 17 17 17 17 17 17 17 17 17 17 17 17 17 17 17 17 17 17 17 16 16 16 16 16 15 15 15 15 15 15 15 15 15 15 15 15 15 15 15 15
17 17 17 16 17 17 17 17 17 17 17 17 17 17 17 17 17 17 17 16 16 16 16 16 16 16 16 15 15 15 15 15 15 15 14 15 15 15 15 15 15 15 15
16 16 16 16 16 16 17 17 17 17 17 17 17 17 17 17 17 16 16 16 16 16 16 16 16 16 16 15 15 15 15 14 14 14 14 14 14 15 14 15 15 15 15
16 16 16 16 16 16 16 16 17 17 17 17 17 17 17 16 16 16 16 16 16 16 16 16 16 15 15 15 15 15 14 14 14 14 14 14 14 14 14 14 14 15 14
16 16 16 16 16 16 16 16 16 16 16 16 16 16 16 16 16 16 16 16 16 16 16 16 16 15 15 15 15 14 14 14 14 14 14 14 14 14 14 14 14 14 14
16 16 16 16 16 16 16 16 16 16 16 16 16 16 16 16 16 16 16 16 16 16 16 16 15 15 15 15 15 14 14 14 14 14 14 14 14 14 14 14 14 14 14
16 16 16 16 16 16 16 16 16 16 16 16 16 16 16 16 16 16 16 16 16 16 16 16 15 15 15 15 15 14 14 14 14 14 14 14 14 14 14 14 14 14 14
15 15 15 15 16 16 16 16 16 16 16 16 16 16 16 16 16 16 16 16 16 16 16 15 15 15 15 15 15 14 14 14 14 14 14 14 14 14 14 14 14 14 14
15 15 15 15 15 15 15 15 15 15 16 16 16 16 16 15 15 15 15 16 16 16 15 15 15 15 15 15 15 14 14 14 14 14 14 14 14 14 14 14 14 14 14
15 15 15 15 15 15 15 15 15 15 15 15 15 15 15 15 15 15 15 15 15 15 15 15 15 15 15 15 15 14 14 14 14 14 14 14 14 14 14 14 14 14 14
14 14 14 14 15 15 15 15 15 15 15 15 15 15 15 15 15 15 15 15 15 15 15 15 15 15 15 15 15 14 14 14 14 14 14 14 14 14 14 14 14 14 14
13 14 14 14 14 14 14 14 15 15 15 15 15 15 15 15 15 15 15 15 15 15 15 15 15 15 15 15 15 14 14 14 14 14 14 14 14 14 14 14 14 14 14
13 13 13 13 14 14 14 14 14 14 14 15 15 15 15 15 15 15 15 15 15 15 15 15 15 15 15 15 15 14 14 14 14 14 14 14 14 14 14 14 14 14 14
12 13 13 13 13 13 13 14 14 14 14 14 14 14 14 15 15 14 15 15 15 15 15 15 15 15 15 15 14 14 14 14 14 14 14 14 14 14 14 14 14 14 14
12 12 12 13 13 13 13 13 13 14 14 14 14 14 14 14 14 14 14 14 14 14 14 14 14 14 14 14 14 14 14 14 14 14 14 14 14 14 14 14 14 14 14
11 12 12 12 12 12 13 13 13 13 13 14 14 14 14 14 14 14 14 14 14 14 14 14 14 14 14 14 14 14 14 14 14 14 14 14 14 14 14 14 14 14 13
11 11 11 12 12 12 12 12 12 13 13 13 13 13 13 13 14 14 14 14 14 14 14 14 14 14 14 14 14 14 14 14 14 14 13 14 14 14 13 13 13 13 13
10 11 11 11 11 11 11 12 12 12 12 13 13 13 13 13 13 13 14 14 14 14 14 14 13 13 13 14 14 14 14 13 13 13 13 13 13 13 13 13 13 13 13
10 10 10 10 11 11 11 11 11 11 12 12 12 12 13 13 13 13 13 13 13 13 13 13 13 13 13 13 13 13 13 13 13 13 13 13 13 13 13 13 13 13 13
9 9 9 10 10 10 10 10 11 11 11 12 12 12 12 12 12 12 12 13 13 13 13 13 13 13 13 13 13 12 13 13 13 13 13 13 13 13 13 12 13 13 12
9 9 9 9 9 9 10 10 10 10 11 11 11 11 11 12 12 12 12 12 12 12 12 12 12 12 12 12 12 12 12 12 12 12 12 12 12 12 12 12 12 12 12
8 8 8 8 9 9 9 9 9 10 10 10 10 11 11 11 11 12 12 12 12 12 12 12 12 12 12 12 12 11 11 11 12 12 12 12 12 12 12 12 12 12 12
8 8 8 8 8 8 9 9 9 9 9 10 10 10 10 10 11 11 11 11 11 11 11 11 12 12 11 11 11 11 11 11 11 11 11 12 12 11 11 11 11 11 11
7 7 7 8 8 8 8 8 8 8 9 9 9 9 10 10 10 10 10 10 11 11 11 11 11 11 11 11 11 11 11 10 10 10 10 11 11 11 11 11 11 11 11
7 7 7 7 7 7 8 8 8 8 8 8 8 9 9 9 10 10 10 10 10 10 10 10 10 11 11 11 10 10 10 10 10 10 10 10 10 11 11 10 10 10 10
Wind_Speed
1 4 9 12 12 13 13 13 13 13 13 13 13 13 13 14 14 13 13 13 12 12 12 12 12 13 13 13 14 14 14 14 14 13 13 12 12 13 13 12 12 12 13
4 5 10 12 12 12 12 13 13 13 13 12 12 12 12 13 13 12 12 12 11 11 11 11 12 12 12 12 12 13 13 13 13 12 12 12 12 12 12 12 11 11 12
3 5 9 11 12 12 12 12 13 13 13 12 12 12 12 12 12 11 11 11 11 10 10 10 11 12 12 12 11 11 11 10 10 10 9 8 9 11 11 11 11 11 11
4 5 7 10 11 11 12 11 11 12 12 12 12 12 11 11 11 11 11 11 10 10 10 10 11 11 11 10 10 9 9 9 9 7 6 6 6 9 9 9 10 10 9
4 4 6 9 10 10 11 11 11 11 12 12 12 12 11 11 10 10 10 10 10 10 10 10 10 10 10 9 9 8 8 8 7 6 6 5 5 8 8 8 8 8 8
3 3 5 7 8 9 9 10 10 10 11 12 12 12 11 11 10 10 10 10 10 10 10 10 10 10 10 8 7 6 7 7 6 7 6 5 5 6 7 7 7 7 6
3 3 3 5 6 7 8 9 10 10 10 11 12 12 12 11 11 11 11 11 11 11 10 10 10 10 9 8 7 6 6 6 6 6 6 5 6 6 6 5 5 5 5
3 3 2 3 4 5 6 7 8 10 10 10 11 12 12 12 12 12 11 12 12 11 11 11 10 11 10 8 7 5 4 4 5 5 6 6 7 7 6 6 5 4 4
5 4 4 2 1 3 5 6 7 8 9 10 11 11 12 12 13 13 12 12 12 12 12 12 11 11 10 9 7 5 4 4 4 4 5 6 7 7 7 6 4 3 3
5 4 4 3 2 1 2 5 5 6 8 9 10 11 11 12 13 13 13 13 13 13 13 12 12 11 11 9 8 6 5 4 4 4 5 6 8 8 7 6 5 4 3
5 4 3 3 3 2 2 4 5 6 7 7 9 10 10 10 11 12 13 14 14 14 13 13 13 12 11 10 9 7 5 4 4 5 7 8 8 8 8 7 6 5 4
5 4 2 2 3 3 3 3 3 4 6 6 7 8 9 9 11 11 13 15 15 14 14 14 14 12 10 8 8 7 6 6 6 6 8 9 9 9 9 8 7 6 6
3 4 4 3 3 3 3 3 3 4 5 6 7 8 8 8 8 9 9 10 12 13 11 12 11 10 9 8 7 7 7 7 7 8 9 11 11 10 10 9 8 8 7
4 4 4 3 3 3 3 3 3 3 4 5 7 8 7 5 5 6 6 8 9 9 9 9 8 9 9 10 9 8 8 8 8 9 10 13 12 11 10 10 9 9 8
4 5 5 4 3 3 3 3 3 3 4 6 7 8 8 5 5 5 6 7 8 9 8 7 7 7 7 8 9 8 7 8 9 9 10 12 13 12 11 10 10 9 9
5 6 5 5 4 4 3 3 3 4 5 6 6 8 9 8 6 6 6 6 8 9 10 9 8 7 6 6 6 7 8 8 9 9 10 11 13 13 12 11 10 10 10
5 5 6 5 4 4 5 5 4 4 4 4 5 8 9 9 8 7 6 6 7 10 10 8 7 6 5 5 6 6 6 7 8 9 10 10 11 13 13 12 11 10 10
5 5 6 6 5 5 5 5 4 4 4 4 5 6 8 9 9 7 6 7 8 9 7 6 6 6 6 5 5 5 5 5 7 8 8 9 10 9 11 12 11 11 10
5 5 6 6 6 6 6 5 5 4 3 3 4 4 6 8 9 7 6 6 8 6 6 7 7 6 6 6 6 5 5 5 5 6 6 8 9 10 10 11 12 12 11
5 5 5 6 6 5 4 4 3 4 3 3 3 4 5 6 8 7 6 7 7 6 6 6 7 6 5 5 5 5 4 5 4 5 6 6 8 9 10 9 9 10 12
5 5 6 6 6 4 3 2 3 3 3 3 3 4 5 5 6 5 5 5 6 7 7 7 5 6 5 3 2 2 2 3 4 4 4 4 5 7 8 8 8 8 9
5 6 6 6 6 5 4 3 3 3 3 3 2 2 3 4 4 4 5 5 6 6 7 7 5 4 3 4 3 2 2 3 4 5 4 5 5 4 4 7 7 8 9
6 6 6 6 6 5 4 2 2 1 1 1 2 2 2 3 2 3 3 4 5 5 6 6 7 7 5 5 4 4 3 4 3 2 4 4 4 4 4 4 7 9 9
6 6 6 6 5 5 4 2 2 2 2 2 2 1 2 2 2 1 1 2 3 3 4 4 5 5 5 5 3 2 2 3 3 2 2 3 4 5 5 4 5 7 8
6 6 6 5 5 4 4 2 2 2 2 1 1 1 1 2 2 2 1 1 2 2 2 2 3 3 4 5 4 2 2 2 2 3 3 3 3 4 5 5 5 5 7
6 6 5 5 4 4 3 2 1 1 1 1 0 1 1 1 1 1 1 0 1 2 2 2 3 3 3 3 3 3 3 2 3 3 4 3 4 4 4 5 5 4 5
Wind_Direction
211 186 155 147 146 145 145 143 139 137 134 131 129 127 125 123 122 123 124 123 122 119 116 115 113 111 107 103 102 100 99 95 92 87 82 81 87 90 89 82 79 76 79
192 174 154 150 148 146 147 148 146 144 142 140 137 136 134 132 131 130 131 131 129 126 121 119 119 116 113 110 109 107 105 100 97 91 83 81 87 92 92 87 85 83 80
139 156 152 149 149 148 147 148 153 153 152 150 147 144 143 142 141 139 138 138 137 133 126 123 126 123 120 118 116 112 109 107 105 95 89 87 90 93 94 90 86 84 81
117 134 148 149 149 151 152 153 155 160 162 159 156 154 152 151 151 151 148 144 144 140 133 129 130 131 129 127 124 118 112 111 108 100 96 90 95 98 96 94 91 87 85
85 121 137 150 152 153 156 158 161 166 171 169 164 163 163 162 160 159 156 152 150 145 141 139 138 139 138 135 131 124 119 115 106 105 110 102 102 103 99 98 94 91 88
66 96 133 144 152 156 161 163 169 174 176 176 173 171 172 172 170 166 160 156 153 152 152 151 149 148 148 146 140 131 126 120 109 115 123 123 121 115 108 105 100 96 90
50 56 127 143 150 160 166 173 176 181 183 182 181 180 180 180 179 173 166 163 162 163 164 164 163 161 159 157 152 142 133 124 120 131 141 145 142 134 127 119 113 106 96
59 34 80 140 150 168 175 183 189 192 193 191 188 189 187 186 184 181 176 173 172 173 173 173 172 169 169 168 167 162 146 130 126 144 157 163 158 149 139 131 125 117 107
42 35 25 35 144 186 189 194 200 205 205 203 198 196 195 192 189 187 184 182 182 182 181 181 178 178 179 181 183 186 176 156 144 162 176 182 174 164 153 148 143 142 135
32 25 12 11 11 321 223 206 208 213 213 212 208 205 201 199 197 193 190 190 190 190 188 187 186 187 189 191 194 200 200 182 172 187 198 199 188 179 173 171 174 179 179
12 2 1 357 347 328 275 235 222 221 222 219 214 210 205 203 201 198 196 195 195 196 195 193 193 194 195 199 204 210 210 202 195 200 203 206 198 193 189 187 191 196 202
349 344 344 329 321 308 281 275 252 236 233 226 219 212 208 205 203 201 202 199 199 199 199 199 198 197 196 201 210 213 213 213 213 214 212 212 205 201 199 199 202 207 214
321 330 336 320 309 301 297 277 265 252 240 234 225 217 210 203 203 201 197 201 200 200 199 201 200 199 198 202 209 215 218 220 223 224 222 217 211 208 206 208 211 216 221
320 316 320 320 317 301 292 282 258 254 243 234 232 222 207 200 198 195 195 196 195 196 196 197 198 200 203 209 214 218 221 221 223 226 226 219 214 211 211 212 216 220 225
309 309 306 306 301 297 290 282 270 254 249 241 233 226 212 201 205 202 199 197 198 197 195 197 202 204 208 215 219 218 221 224 223 220 221 218 215 213 214 218 221 223 228
304 302 301 301 294 292 278 270 266 259 254 247 237 227 215 207 203 201 203 199 200 202 202 201 203 204 210 212 220 220 221 221 221 217 216 217 218 218 217 222 224 228 231
290 292 294 292 292 288 280 272 278 267 259 248 243 234 222 214 207 202 202 204 205 205 203 203 204 202 207 211 220 223 221 222 221 218 216 215 219 222 220 221 226 230 234
285 289 289 295 291 282 277 275 278 273 264 255 246 239 230 222 215 206 205 207 205 202 198 200 201 201 209 211 218 226 223 220 223 220 215 214 212 218 223 225 228 231 236
287 289 291 293 289 283 277 273 271 271 264 266 255 242 234 227 219 210 212 210 201 199 202 204 202 200 206 212 219 224 224 222 220 217 213 214 212 213 218 226 228 233 237
303 301 298 300 295 289 279 276 273 270 265 273 266 256 243 236 227 214 217 212 201 200 205 204 203 204 204 208 218 226 229 227 219 214 215 212 211 212 216 221 226 237 242
336 325 313 308 302 300 288 274 262 261 262 264 261 262 253 242 233 220 221 213 205 204 204 201 200 202 207 183 175 233 261 242 228 222 214 210 214 216 216 223 225 229 241
333 327 319 311 306 300 281 258 241 240 244 248 264 285 273 255 240 230 217 212 206 206 203 199 195 198 200 181 169 167 237 269 249 231 219 219 222 212 218 229 227 229 236
329 323 316 309 307 304 297 276 268 261 285 283 294 303 300 288 269 247 230 215 206 204 206 202 197 199 200 196 180 173 181 220 244 250 225 221 218 217 225 237 238 239 238
319 319 311 310 311 312 306 274 235 227 236 251 261 279 312 322 323 311 252 218 210 206 203 203 200 201 190 195 201 205 192 170 192 245 265 232 225 225 230 240 245 244 239
322 321 314 313 316 318 317 293 251 243 235 246 280 320 323 322 339 338 331 198 207 207 195 191 200 193 196 194 191 192 207 212 204 205 244 252 249 236 233 236 235 240 241
335 332 329 326 323 327 328 325 299 245 217 186 282 290 313 308 313 336 19 132 202 196 192 190 188 184 195 191 190 192 190 193 204 211 231 242 249 248 241 235 231 237 243
Height
1522 1522 1523 1524 1525 1526 1527 1528 1530 1531 1532 1533 1534 1535 1535 1536 1536 1537 1537 1538 1538 1538 1539 1539 1539 1540 1540 1541 1541 1541 1542 1542 1542 1542 1542 1542 1542 1542 1542 1542 1541 1541 1541
1522 1522 1523 1524 1525 1526 1527 1529 1530 1531 1532 1533 1534 1535 1536 1536 1537 1537 1538 1538 1539 1539 1539 1540 1540 1541 1541 1541 1542 1542 1543 1543 1543 1543 1543 1543 1543 1543 1543 1543 1543 1542 1542
1522 1522 1523 1524 1525 1527 1528 1529 1530 1531 1532 1533 1534 1535 1536 1537 1537 1538 1538 1539 1539 1540 1540 1540 1541 1541 1542 1542 1543 1543 1543 1544 1544 1544 1544 1545 1545 1544 1544 1544 1544 1543 1543
1522 1522 1523 1524 1526 1527 1528 1529 1530 1531 1532 1533 1534 1535 1536 1537 1537 1538 1539 1539 1540 1540 1541 1541 1542 1542 1542 1543 1543 1544 1544 1545 1545 1545 1545 1545 1545 1545 1545 1545 1545 1544 1544
1522 1522 1523 1524 1526 1527 1528 1529 1530 1531 1532 1533 1534 1535 1536 1537 1537 1538 1539 1539 1540 1540 1541 1541 1542 1543 1543 1544 1544 1544 1545 1545 1545 1546 1546 1546 1546 1546 1546 1545 1545 1545 1544
1522 1523 1524 1524 1525 1526 1527 1528 1529 1530 1531 1533 1534 1535 1536 1536 1537 1538 1538 1539 1540 1540 1541 1542 1542 1543 1543 1544 1545 1545 1545 1545 1546 1546 1546 1546 1546 1546 1546 1546 1545 1545 1545
1522 1523 1523 1524 1525 1526 1527 1528 1529 1530 1531 1532 1533 1534 1535 1536 1536 1537 1538 1539 1539 1540 1541 1541 1542 1543 1544 1544 1545 1545 1545 1546 1546 1546 1546 1546 1546 1546 1546 1546 1546 1545 1545
1521 1522 1523 1523 1524 1525 1526 1527 1528 1529 1530 1531 1532 1533 1534 1535 1536 1536 1537 1538 1539 1539 1540 1541 1542 1543 1543 1544 1545 1545 1545 1545 1546 1546 1546 1546 1546 1546 1546 1546 1546 1545 1545
1521 1521 1522 1522 1523 1524 1525 1526 1527 1528 1529 1530 1530 1532 1533 1534 1534 1535 1536 1537 1538 1539 1540 1540 1541 1542 1543 1543 1544 1545 1545 1545 1545 1546 1546 1546 1546 1546 1546 1546 1545 1545 1545
1520 1520 1520 1521 1521 1522 1523 1524 1525 1526 1527 1528 1529 1530 1531 1532 1533 1534 1535 1536 1537 1537 1538 1539 1540 1541 1542 1543 1543 1544 1544 1544 1545 1545 1545 1545 1546 1545 1545 1545 1545 1544 1544
1518 1518 1519 1519 1520 1520 1521 1522 1523 1524 1525 1526 1527 1528 1529 1530 1531 1532 1533 1534 1535 1536 1537 1538 1539 1540 1541 1541 1542 1543 1543 1543 1544 1544 1544 1545 1545 1545 1544 1544 1544 1544 1543
1516 1516 1516 1517 1517 1518 1519 1519 1520 1521 1522 1523 1524 1525 1526 1527 1529 1530 1531 1532 1533 1534 1536 1537 1537 1538 1539 1540 1541 1541 1542 1542 1543 1543 1543 1543 1544 1544 1543 1543 1543 1543 1542
1514 1514 1514 1514 1515 1515 1516 1517 1517 1518 1519 1520 1521 1522 1523 1525 1526 1527 1528 1530 1531 1532 1533 1534 1535 1536 1537 1538 1539 1539 1540 1541 1541 1542 1542 1542 1542 1542 1542 1542 1541 1541 1541
1512 1512 1512 1512 1512 1512 1513 1513 1514 1514 1515 1516 1517 1519 1520 1521 1522 1524 1525 1527 1528 1529 1531 1532 1533 1534 1535 1536 1537 1537 1538 1539 1539 1540 1540 1540 1540 1541 1540 1540 1540 1540 1539
1509 1509 1509 1509 1508 1508 1509 1509 1510 1511 1511 1512 1514 1515 1516 1517 1519 1520 1522 1523 1525 1526 1527 1529 1530 1531 1532 1533 1534 1535 1535 1536 1537 1537 1538 1538 1538 1538 1538 1538 1538 1538 1537
1506 1505 1505 1505 1505 1505 1505 1505 1506 1506 1507 1508 1509 1510 1512 1513 1515 1516 1517 1519 1521 1522 1524 1525 1527 1528 1529 1530 1531 1532 1532 1533 1534 1535 1535 1536 1536 1536 1536 1536 1536 1535 1535
1503 1502 1501 1501 1501 1501 1501 1501 1501 1502 1502 1503 1504 1506 1507 1509 1510 1512 1513 1515 1517 1518 1520 1522 1523 1524 1525 1526 1527 1528 1529 1530 1531 1531 1532 1533 1533 1533 1533 1533 1533 1533 1533
1499 1498 1497 1497 1496 1496 1496 1496 1496 1497 1498 1499 1500 1501 1502 1504 1506 1507 1508 1510 1512 1514 1515 1517 1519 1520 1521 1522 1523 1524 1525 1526 1527 1528 1529 1529 1529 1530 1530 1530 1530 1530 1530
1495 1494 1493 1493 1492 1492 1491 1491 1492 1492 1493 1494 1495 1496 1497 1499 1501 1502 1503 1505 1507 1509 1510 1512 1514 1515 1517 1518 1519 1520 1521 1522 1523 1524 1524 1525 1526 1526 1527 1527 1527 1527 1526
1491 1490 1489 1488 1488 1487 1487 1487 1487 1487 1488 1489 1490 1491 1492 1494 1495 1497 1498 1500 1502 1503 1505 1507 1509 1510 1512 1513 1515 1516 1517 1518 1519 1519 1520 1521 1522 1522 1522 1523 1523 1523 1523
1487 1486 1485 1484 1483 1483 1482 1481 1481 1482 1483 1484 1485 1486 1488 1489 1490 1492 1492 1494 1496 1497 1499 1501 1503 1505 1507 1509 1511 1511 1512 1513 1514 1514 1515 1516 1517 1518 1518 1518 1518 1518 1518
1484 1483 1481 1480 1479 1478 1477 1477 1477 1478 1478 1479 1481 1482 1483 1484 1485 1487 1488 1489 1490 1492 1493 1496 1498 1500 1501 1504 1505 1506 1507 1508 1508 1509 1510 1511 1512 1512 1513 1513 1513 1513 1513
1481 1480 1478 1477 1475 1474 1473 1473 1473 1474 1474 1475 1476 1477 1478 1480 1481 1482 1483 1484 1485 1487 1488 1490 1492 1494 1496 1498 1499 1501 1501 1501 1502 1503 1504 1505 1506 1507 1507 1508 1508 1508 1508
1479 1477 1475 1473 1472 1471 1470 1469 1469 1469 1470 1471 1472 1473 1474 1475 1476 1477 1478 1479 1480 1482 1483 1484 1487 1489 1491 1492 1494 1495 1497 1497 1498 1497 1498 1499 1501 1501 1502 1502 1502 1502 1502
1476 1473 1471 1470 1468 1468 1467 1466 1466 1466 1467 1467 1468 1469 1470 1471 1472 1472 1473 1474 1475 1477 1478 1480 1482 1484 1485 1487 1488 1490 1491 1492 1492 1493 1492 1493 1494 1495 1496 1496 1496 1496 1496
1473 1470 1468 1466 1465 1465 1464 1463 1463 1463 1463 1464 1465 1466 1466 1467 1468 1468 1469 1469 1470 1472 1473 1475 1477 1478 1480 1481 1483 1484 1485 1486 1487 1488 1487 1487 1487 1488 1489 1490 1490 1490 1490